Stündliche Wetter Abraevo

Heute, 22 Juni, Dienstag

Zeit Temperatur Niederschläge Wind Luftdruck Luftfeuchtigkeit
00:00 +19°C° 0.2 mm 1 m/S 750 mmHg 87%
01:00 +19°C° 0.2 mm 2 m/S 750 mmHg 88%
02:00 +19°C° 0 mm 1 m/S 750 mmHg 89%
03:00 +19°C° 0 mm 1 m/S 750 mmHg 90%
04:00 +19°C° 0 mm 1 m/S 750 mmHg 90%
05:00 +21°C° 0 mm 1 m/S 750 mmHg 88%
06:00 +22°C° 0 mm 1 m/S 750 mmHg 85%
07:00 +23°C° 0 mm 1 m/S 750 mmHg 83%
08:00 +25°C° 0 mm 2 m/S 750 mmHg 76%
09:00 +26°C° 0 mm 2 m/S 750 mmHg 69%
10:00 +28°C° 0 mm 2 m/S 750 mmHg 63%
11:00 +29°C° 0 mm 2 m/S 750 mmHg 58%
12:00 +30°C° 0 mm 3 m/S 750 mmHg 53%
13:00 +31°C° 0 mm 3 m/S 750 mmHg 48%
14:00 +31°C° 0 mm 3 m/S 750 mmHg 52%
15:00 +30°C° 0 mm 3 m/S 750 mmHg 56%
16:00 +29°C° 0 mm 3 m/S 750 mmHg 59%
17:00 +29°C° 0 mm 3 m/S 749 mmHg 62%
18:00 +28°C° 0 mm 3 m/S 749 mmHg 65%
19:00 +27°C° 0 mm 2 m/S 749 mmHg 68%
20:00 +26°C° 0 mm 2 m/S 749 mmHg 70%
21:00 +25°C° 0 mm 2 m/S 749 mmHg 73%
22:00 +24°C° 0 mm 3 m/S 749 mmHg 75%
23:00 +24°C° 0 mm 3 m/S 749 mmHg 76%

Morgen, 23 Juni, Mittwoch

Zeit Temperatur Niederschläge Wind Luftdruck Luftfeuchtigkeit
00:00 +24°C° 0 mm 3 m/S 748 mmHg 76%
01:00 +23°C° 0 mm 4 m/S 748 mmHg 77%
02:00 +22°C° 0 mm 3 m/S 748 mmHg 79%
03:00 +21°C° 0 mm 3 m/S 748 mmHg 82%
04:00 +21°C° 0 mm 3 m/S 748 mmHg 85%
05:00 +22°C° 0 mm 3 m/S 748 mmHg 81%
06:00 +24°C° 0 mm 3 m/S 748 mmHg 77%
07:00 +25°C° 0 mm 3 m/S 748 mmHg 74%
08:00 +27°C° 0 mm 4 m/S 748 mmHg 68%
09:00 +28°C° 0 mm 4 m/S 748 mmHg 63%
10:00 +30°C° 0 mm 5 m/S 748 mmHg 58%
11:00 +30°C° 0 mm 5 m/S 748 mmHg 55%
12:00 +32°C° 0 mm 5 m/S 748 mmHg 52%
13:00 +33°C° 0 mm 6 m/S 748 mmHg 49%
14:00 +33°C° 0 mm 6 m/S 748 mmHg 51%
15:00 +32°C° 0 mm 5 m/S 747 mmHg 53%
16:00 +32°C° 0 mm 5 m/S 747 mmHg 55%
17:00 +28°C° 0.8 mm 5 m/S 748 mmHg 65%
18:00 +25°C° 0.8 mm 5 m/S 748 mmHg 75%
19:00 +21°C° 0.8 mm 5 m/S 748 mmHg 85%
20:00 +20°C° 0.7 mm 4 m/S 748 mmHg 88%
21:00 +19°C° 0.7 mm 2 m/S 748 mmHg 90%
22:00 +20°C° 0.7 mm 1 m/S 748 mmHg 93%
23:00 +20°C° 0.1 mm 1 m/S 748 mmHg 93%

übermorgen, 24 Juni, Donnerstag

Zeit Temperatur Niederschläge Wind Luftdruck Luftfeuchtigkeit
00:00 +19°C° 0.1 mm 1 m/S 748 mmHg 93%
01:00 +19°C° 0.1 mm 1 m/S 748 mmHg 93%
02:00 +19°C° 0 mm 1 m/S 748 mmHg 94%
03:00 +19°C° 0 mm 1 m/S 748 mmHg 94%
04:00 +19°C° 0 mm 1 m/S 748 mmHg 94%
05:00 +20°C° 0 mm 1 m/S 748 mmHg 90%
06:00 +21°C° 0 mm 1 m/S 748 mmHg 87%
07:00 +22°C° 0 mm 1 m/S 748 mmHg 83%
08:00 +23°C° 0 mm 1 m/S 748 mmHg 77%
09:00 +24°C° 0 mm 1 m/S 748 mmHg 70%
10:00 +25°C° 0 mm 1 m/S 749 mmHg 64%
11:00 +26°C° 0 mm 1 m/S 748 mmHg 61%
12:00 +27°C° 0 mm 1 m/S 748 mmHg 58%
13:00 +28°C° 0 mm 1 m/S 748 mmHg 55%
14:00 +29°C° 0 mm 1 m/S 748 mmHg 54%
15:00 +29°C° 0 mm 2 m/S 747 mmHg 53%
16:00 +30°C° 0 mm 2 m/S 747 mmHg 52%
17:00 +29°C° 0 mm 2 m/S 747 mmHg 57%
18:00 +28°C° 0 mm 1 m/S 747 mmHg 62%
19:00 +28°C° 0 mm 1 m/S 746 mmHg 68%
20:00 +26°C° 0.2 mm 1 m/S 746 mmHg 72%
21:00 +25°C° 0.2 mm 1 m/S 746 mmHg 75%
22:00 +23°C° 0.2 mm 2 m/S 745 mmHg 79%
23:00 +21°C° 0.4 mm 2 m/S 745 mmHg 83%

25 Juni, Freitag

Zeit Temperatur Niederschläge Wind Luftdruck Luftfeuchtigkeit
00:00 +21°C° 0.4 mm 2 m/S 745 mmHg 87%
01:00 +20°C° 0.4 mm 2 m/S 745 mmHg 92%
02:00 +19°C° 0.3 mm 2 m/S 745 mmHg 92%
03:00 +20°C° 0.3 mm 1 m/S 744 mmHg 92%
04:00 +19°C° 0.3 mm 1 m/S 744 mmHg 93%
05:00 +19°C° 0 mm 2 m/S 744 mmHg 91%
06:00 +20°C° 0 mm 2 m/S 744 mmHg 90%
07:00 +21°C° 0 mm 3 m/S 745 mmHg 88%
08:00 +22°C° 0 mm 3 m/S 745 mmHg 82%
09:00 +25°C° 0 mm 3 m/S 745 mmHg 77%
10:00 +26°C° 0 mm 3 m/S 745 mmHg 71%
11:00 +27°C° 0.1 mm 3 m/S 744 mmHg 68%
12:00 +28°C° 0.1 mm 3 m/S 744 mmHg 64%
13:00 +29°C° 0.1 mm 3 m/S 744 mmHg 61%
14:00 +29°C° 0.4 mm 3 m/S 744 mmHg 61%
15:00 +29°C° 0.4 mm 3 m/S 744 mmHg 60%
16:00 +29°C° 0.4 mm 3 m/S 744 mmHg 60%
17:00 +29°C° 0.2 mm 3 m/S 744 mmHg 65%
18:00 +28°C° 0.2 mm 2 m/S 743 mmHg 70%
19:00 +27°C° 0.2 mm 2 m/S 743 mmHg 76%
20:00 +26°C° 0 mm 2 m/S 743 mmHg 78%
21:00 +25°C° 0 mm 1 m/S 743 mmHg 81%
22:00 +23°C° 0 mm 1 m/S 743 mmHg 84%
23:00 +23°C° 0 mm 1 m/S 743 mmHg 85%

26 Juni, Samstag

Zeit Temperatur Niederschläge Wind Luftdruck Luftfeuchtigkeit
00:00 +23°C° 0 mm 1 m/S 743 mmHg 86%
01:00 +22°C° 0 mm 1 m/S 743 mmHg 87%
02:00 +22°C° 0 mm 1 m/S 743 mmHg 88%
03:00 +22°C° 0 mm 1 m/S 742 mmHg 88%
04:00 +22°C° 0 mm 1 m/S 742 mmHg 89%
05:00 +23°C° 0.2 mm 1 m/S 742 mmHg 87%
06:00 +24°C° 0.2 mm 2 m/S 742 mmHg 85%
07:00 +25°C° 0.2 mm 2 m/S 742 mmHg 83%
08:00 +26°C° 0.1 mm 2 m/S 742 mmHg 78%
09:00 +28°C° 0.1 mm 2 m/S 742 mmHg 73%
10:00 +29°C° 0.1 mm 3 m/S 742 mmHg 68%
11:00 +30°C° 0 mm 3 m/S 742 mmHg 62%
12:00 +31°C° 0 mm 3 m/S 742 mmHg 57%
13:00 +33°C° 0 mm 4 m/S 742 mmHg 52%
14:00 +33°C° 0 mm 4 m/S 742 mmHg 52%
15:00 +33°C° 0 mm 4 m/S 742 mmHg 53%
16:00 +33°C° 0 mm 5 m/S 742 mmHg 53%
17:00 +30°C° 0.2 mm 5 m/S 742 mmHg 60%
18:00 +29°C° 0.2 mm 4 m/S 741 mmHg 67%
19:00 +28°C° 0.2 mm 4 m/S 741 mmHg 73%
20:00 +26°C° 0.3 mm 3 m/S 741 mmHg 78%
21:00 +25°C° 0.3 mm 3 m/S 741 mmHg 82%
22:00 +23°C° 0.3 mm 2 m/S 741 mmHg 87%
23:00 +21°C° 0 mm 2 m/S 741 mmHg 87%

27 Juni, Sonntag

Zeit Temperatur Niederschläge Wind Luftdruck Luftfeuchtigkeit
00:00 +21°C° 0 mm 2 m/S 741 mmHg 88%
01:00 +21°C° 0 mm 1 m/S 742 mmHg 89%
02:00 +20°C° 0 mm 2 m/S 742 mmHg 91%
03:00 +19°C° 0 mm 2 m/S 742 mmHg 93%
04:00 +19°C° 0 mm 2 m/S 742 mmHg 95%
05:00 +19°C° 0 mm 2 m/S 742 mmHg 90%
06:00 +20°C° 0 mm 3 m/S 742 mmHg 85%
07:00 +20°C° 0 mm 3 m/S 743 mmHg 80%
08:00 +22°C° 0 mm 4 m/S 743 mmHg 72%
09:00 +23°C° 0 mm 4 m/S 743 mmHg 65%
10:00 +25°C° 0 mm 4 m/S 743 mmHg 58%
11:00 +25°C° 0 mm 4 m/S 743 mmHg 55%
12:00 +26°C° 0 mm 4 m/S 743 mmHg 53%
13:00 +27°C° 0 mm 4 m/S 743 mmHg 51%
14:00 +27°C° 0 mm 4 m/S 742 mmHg 50%
15:00 +27°C° 0 mm 4 m/S 742 mmHg 50%
16:00 +27°C° 0 mm 4 m/S 742 mmHg 49%
17:00 +26°C° 0 mm 3 m/S 742 mmHg 55%
18:00 +26°C° 0 mm 3 m/S 742 mmHg 61%
19:00 +25°C° 0 mm 2 m/S 742 mmHg 67%
20:00 +23°C° 0 mm 2 m/S 741 mmHg 70%
21:00 +22°C° 0 mm 1 m/S 741 mmHg 73%
22:00 +20°C° 0 mm 1 m/S 741 mmHg 76%
23:00 +20°C° 0 mm 1 m/S 740 mmHg 77%
Mehr zeigen

Wir brauchen deine Erlaubnis

Meteoprog und unser Service Anbieter werden persönliche Daten aufbewahren, so wie Cookies, Geräte Bezeichnung oder ähnliche Technologien von deinem Gerät und Prozess, so wie Persönliche Daten Inhalte und Werbungen, genauso wie social Media und den Verkehr zu analysieren.

  • Aufbewahrung und/oder Zugang zu deiner Geräte Informationen.

    Cookies, Geräte Bezeichnung oder andere Informationen, können aufbewahrt oder Zugang zu deinem Gerät erhalten, für den Grund, der oben angegeben wird.

  • Personalisierte Werbung und Inhalte, Messungen, Einblick in das Publikum und Produkt Entwicklung.

    Werbungen und Inhalte können personalisiert werden, basierend auf ein Profil. Mehr Daten können besser personalisierte Werbungen und Inhalte hinzufügen. Werbung und Inhalte können gezeigt und gemessen werden. Einblicke über das Publikum, welche die Werbung gesehen haben und den Inhalt, können abgeleitet werden. So wie Daten können genutzt werden, um es zu verbessern oder die Benutzer Erfahrung zu verbessern das System und die Software.

Wenn du “Ich stimme zu” klickst, erlaubst du uns, die Cookies zu benutzen die Geräte Bezeichnung, den Web oder ähnliche Technologien zu benutzen. Deine Settings, können in deinem Gerät bei deinem Browser geändert werden.

Für den bestimmten Zweck, berechtigten Interessen beruhen darauf, mehr als auf den Inhalt. Du kannst mehr darüber in unseren Privaten und Cookie Politik lesen.